CW4167 Weather Reports


Display with metric or nautical units.
time (UTC)temp
F
wind
direction
speed
MPH
gust
MPH
rain 1hr
in
rain 24hr
in
rain mn
in
humidity
%
barometer
mb
20260510182205 54 328 1.0 3.0 0.00 0.00 0.00 68 1007.4
20260510180205 54 332 3.0 5.0 0.00 0.00 0.00 69 1007.4
20260510175704 54 333 2.0 5.0 0.00 0.00 0.00 69 1007.4
20260510173206 54 339 6.0 8.0 0.00 0.00 0.00 69 1007.7
20260510172705 54 350 7.0 14.0 0.00 0.00 0.00 68 1007.8
20260510171705 55 329 7.0 10.0 0.00 0.00 0.00 67 1007.8
20260510170704 55 338 5.0 9.0 0.00 0.00 0.00 66 1008.0
20260510165705 55 335 6.0 13.0 0.00 0.00 0.00 65 1008.1
20260510164708 55 330 7.0 14.0 0.00 0.00 0.00 64 1008.2
20260510164206 56 333 7.0 9.0 0.00 0.00 0.00 64 1008.2
20260510162704 56 330 9.0 10.0 0.00 0.00 0.00 62 1008.3
20260510162204 56 329 8.0 14.0 0.00 0.00 0.00 62 1008.3
20260510161705 57 328 7.0 10.0 0.00 0.00 0.00 60 1008.5
20260510160706 57 329 6.0 13.0 0.00 0.00 0.00 59 1008.5
20260510160208 57 330 9.0 10.0 0.00 0.00 0.00 59 1008.5
20260510155704 58 341 6.0 13.0 0.00 0.00 0.00 60 1008.6
20260510154705 58 339 7.0 10.0 0.00 0.00 0.00 59 1008.6
20260510153707 58 343 11.0 16.0 0.00 0.00 0.00 60 1008.7
20260510153205 58 341 9.0 14.0 0.00 0.00 0.00 59 1008.7
20260510150705 58 346 12.0 17.0 0.00 0.00 0.00 57 1008.9
20260510145704 58 340 12.0 17.0 0.00 0.00 0.00 59 1008.9
20260510144205 57 340 10.0 15.0 0.00 0.00 0.00 59 1009.3
20260510143705 57 346 8.0 14.0 0.00 0.00 0.00 59 1009.3
20260510142204 58 353 11.0 15.0 0.00 0.00 0.00 54 1009.4
20260510141205 57 341 7.0 17.0 0.00 0.00 0.00 54 1009.4
20260510140204 57 349 14.0 20.0 0.00 0.00 0.00 53 1009.4
20260510135706 58 349 11.0 17.0 0.00 0.00 0.00 55 1009.4
20260510134706 58 355 13.0 17.0 0.00 0.00 0.00 54 1009.4
20260510133704 57 11 12.0 16.0 0.00 0.00 0.00 60 1009.6
20260510132704 57 4 13.0 18.0 0.00 0.00 0.00 65 1009.7
20260510131204 59 332 15.0 16.0 0.00 0.00 0.00 65 1009.7
20260510130706 59 336 8.0 15.0 0.00 0.00 0.00 63 1009.7
20260510130204 60 339 9.0 14.0 0.00 0.00 0.00 61 1009.7
20260510124205 60 36 6.0 10.0 0.00 0.00 0.00 63 1009.8
20260510123707 60 348 6.0 10.0 0.00 0.00 0.00 65 1010.0
20260510122704 60 23 5.0 10.0 0.00 0.00 0.00 67 1010.1
20260510121705 58 315 7.0 10.0 0.00 0.00 0.00 69 1010.2
20260510121204 58 20 5.0 9.0 0.00 0.00 0.00 71 1010.2
20260510120706 57 4 9.0 15.0 0.00 0.00 0.00 73 1010.3
20260510115207 56 13 7.0 8.0 0.00 0.00 0.00 73 1010.5
20260510114706 56 8 6.0 7.0 0.00 0.00 0.00 74 1010.5
20260510114206 56 5 4.0 6.0 0.00 0.00 0.00 72 1010.5
20260510113206 57 333 5.0 7.0 0.00 0.00 0.00 69 1010.6
20260510111206 59 0 7.0 13.0 0.00 0.00 0.00 66 1010.8
20260510110708 59 340 9.0 10.0 0.00 0.00 0.00 65 1010.8
20260510110206 60 1 6.0 9.0 0.00 0.00 0.00 66 1010.8
20260510105707 59 333 6.0 8.0 0.00 0.00 0.00 69 1010.9
20260510105206 59 306 7.0 10.0 0.00 0.00 0.00 69 1010.9
20260510103705 58 357 3.0 7.0 0.00 0.00 0.00 71 1010.9
20260510102205 56 306 5.0 8.0 0.00 0.00 0.00 72 1011.1
20260510100206 57 295 4.0 10.0 0.00 0.00 0.00 69 1011.5
20260510095707 57 303 6.0 7.0 0.00 0.00 0.00 67 1011.5
20260510094706 58 304 5.0 6.0 0.00 0.00 0.00 68 1011.6
20260510094206 58 299 6.0 7.0 0.00 0.00 0.00 68 1011.6
20260510093707 58 262 3.0 8.0 0.00 0.00 0.00 69 1011.7
20260510093206 57 300 3.0 5.0 0.00 0.00 0.00 71 1011.9
20260510092706 57 139 3.0 6.0 0.00 0.00 0.00 70 1011.9
20260510092207 56 261 3.0 6.0 0.00 0.00 0.00 69 1011.9
20260510091706 56 201 1.0 5.0 0.00 0.00 0.00 71 1012.0
20260510090206 56 250 3.0 5.0 0.00 0.00 0.00 70 1012.0
20260510085206 56 241 6.0 7.0 0.00 0.00 0.00 68 1012.2
20260510084707 56 230 2.0 6.0 0.00 0.00 0.00 69 1012.2
20260510083706 56 208 1.0 5.0 0.00 0.00 0.00 69 1012.2
20260510081706 56 233 4.0 6.0 0.00 0.00 0.00 68 1012.2
20260510081207 56 212 2.0 5.0 0.00 0.00 0.00 69 1012.2
20260510080706 55 157 5.0 8.0 0.00 0.00 0.00 69 1012.2
20260510080206 55 151 5.0 7.0 0.00 0.00 0.00 69 1012.2
20260510075206 55 189 5.0 8.0 0.00 0.00 0.00 69 1012.2
20260510074705 55 209 5.0 7.0 0.00 0.00 0.00 70 1012.2
20260510074207 55 178 3.0 5.0 0.00 0.00 0.00 70 1012.2
20260510072706 54 196 1.0 5.0 0.00 0.00 0.00 71 1012.2
20260510071205 54 291 2.0 3.0 0.00 0.00 0.00 72 1012.3
20260510064707 52 290 0.0 5.0 0.00 0.00 0.00 75 1012.6
20260510064205 52 278 3.0 5.0 0.00 0.00 0.00 76 1012.6
20260510061707 50 120 5.0 6.0 0.00 0.00 0.00 76 1012.5
20260510055706 49 137 5.0 8.0 0.00 0.00 0.00 77 1012.6
20260510053205 48 131 7.0 10.0 0.00 0.00 0.00 77 1012.8
20260510052706 48 137 5.0 10.0 0.00 0.00 0.00 78 1012.9
20260510051208 47 130 8.0 13.0 0.00 0.00 0.00 78 1012.9
20260510045707 47 129 6.0 10.0 0.00 0.00 0.00 78 1013.0
20260510044205 47 126 9.0 10.0 0.00 0.00 0.00 77 1013.1
20260510043705 47 128 9.0 10.0 0.00 0.00 0.00 77 1013.4
20260510043206 47 125 8.0 9.0 0.00 0.00 0.00 77 1013.4
20260510042706 47 132 7.0 8.0 0.00 0.00 0.00 77 1013.4
20260510042206 47 133 8.0 10.0 0.00 0.00 0.00 77 1013.4
20260510041208 46 129 7.0 8.0 0.00 0.00 0.00 78 1013.6
20260510040706 46 128 8.0 8.0 0.00 0.00 0.00 78 1013.6
20260510035706 46 128 7.0 8.0 0.00 0.00 0.00 78 1013.6
20260510032705 46 134 6.0 7.0 0.00 0.00 0.00 79 1013.9
20260510032205 46 135 7.0 10.0 0.00 0.00 0.00 79 1013.9
20260510031706 46 124 7.0 8.0 0.00 0.00 0.00 79 1013.9
20260510025206 45 129 7.0 8.0 0.00 0.00 0.00 80 1014.1
20260510022706 44 127 7.0 7.0 0.00 0.00 0.00 81 1014.4
20260510022206 43 133 6.0 7.0 0.00 0.00 0.00 81 1014.4
20260510021705 43 135 7.0 8.0 0.00 0.00 0.00 81 1014.4
20260510020207 42 133 4.0 7.0 0.00 0.00 0.00 82 1014.7
20260510014205 41 127 3.0 5.0 0.00 0.00 0.00 80 1014.7
20260510012205 41 124 3.0 5.0 0.00 0.00 0.00 79 1014.7
20260510011706 41 125 2.0 3.0 0.00 0.00 0.00 79 1014.9
20260510005206 41 129 3.0 5.0 0.00 0.00 0.00 78 1015.4
20260510004706 41 125 3.0 6.0 0.00 0.00 0.00 78 1015.4
20260510004206 41 130 3.0 5.0 0.00 0.00 0.00 78 1015.4
20260510003206 41 122 4.0 5.0 0.00 0.00 0.00 79 1015.6
20260510002707 41 131 3.0 6.0 0.00 0.00 0.00 79 1015.7
20260510001705 41 124 5.0 5.0 0.00 0.00 0.00 78 1016.0
20260510001206 41 144 5.0 5.0 0.00 0.00 0.00 78 1016.0
20260509234705 41 137 5.0 7.0 0.00 0.00 0.00 78 1016.3
20260509233707 41 136 6.0 7.0 0.00 0.00 0.00 78 1016.5
20260509232709 41 137 6.0 7.0 0.00 0.00 0.00 77 1016.5
20260509231205 41 146 3.0 3.0 0.00 0.00 0.00 77 1016.9
20260509225205 41 147 0.0 0.0 0.00 0.00 0.00 77 1017.1
20260509224205 41 147 0.0 0.0 0.00 0.00 0.00 76 1017.1
20260509223705 41 147 0.0 0.0 0.00 0.00 0.00 76 1017.1
20260509222206 42 147 0.0 2.0 0.00 0.00 0.00 75 1017.2
20260509221705 42 147 2.0 3.0 0.00 0.00 0.00 75 1017.2
20260509221205 42 147 2.0 5.0 0.00 0.00 0.00 75 1017.2
20260509220205 42 150 3.0 5.0 0.00 0.00 0.00 74 1017.3
20260509215208 42 153 2.0 2.0 0.00 0.00 0.00 75 1017.4
20260509214206 42 153 3.0 5.0 0.00 0.00 0.00 74 1017.4
20260509213205 43 145 5.0 6.0 0.00 0.00 0.00 74 1017.4
20260509211705 43 133 3.0 3.0 0.00 0.00 0.00 73 1017.5
20260509211206 44 133 2.0 3.0 0.00 0.00 0.00 73 1017.5
20260509210205 44 133 2.0 3.0 0.00 0.00 0.00 72 1017.6
20260509205206 45 127 1.0 3.0 0.00 0.00 0.00 70 1017.6
20260509204704 46 127 0.0 0.0 0.00 0.00 0.00 70 1017.6
20260509204206 46 127 0.0 3.0 0.00 0.00 0.00 70 1017.6
20260509203705 46 127 2.0 5.0 0.00 0.00 0.00 69 1017.7
20260509203205 47 129 2.0 3.0 0.00 0.00 0.00 69 1017.6
20260509202706 47 136 3.0 3.0 0.00 0.00 0.00 68 1017.6
20260509202205 47 140 3.0 6.0 0.00 0.00 0.00 68 1017.5
20260509201205 48 119 5.0 6.0 0.00 0.00 0.00 68 1017.5
20260509195704 49 127 5.0 6.0 0.00 0.00 0.00 68 1017.6
20260509195206 49 129 5.0 6.0 0.00 0.00 0.00 68 1017.7
20260509194705 49 131 5.0 6.0 0.00 0.00 0.00 67 1017.7
20260509194206 50 126 4.0 6.0 0.00 0.00 0.00 67 1017.7
20260509192706 51 123 6.0 7.0 0.00 0.00 0.00 65 1017.6